This is the latest recevied weather packets stored in our database for station/object OK3MS-5. If no packets are shown the sender has not sent any weather packets the latest 1 day(s).
| Time | Temp. | Humidity | Pressure | Rain* | Wind** | Luminosity | Snow |
|---|---|---|---|---|---|---|---|
| 1836274678 | 15° C | 82% | 1022 hPa | 0 mm | 0.45 m/s, 44° | 0 W/m² | - |
| 1836274526 | 14.44° C | 85% | 1021.9 hPa | 0 mm | 0 m/s | 0 W/m² | - |
| 1836274376 | 14.44° C | 84% | 1022.1 hPa | 0 mm | 0 m/s | 0 W/m² | - |
| 1836274226 | 15.56° C | 82% | 1021.8 hPa | 0 mm | 0.45 m/s, 44° | 0 W/m² | - |
| 1836274080 | 13.89° C | 88% | 1022.2 hPa | 0 mm | 0 m/s | 0 W/m² | - |
| 1778014804 | 15.56° C | 76% | 1004.2 hPa | 0 mm | 0.89 m/s, 222° | 0 W/m² | - |
| 1778014502 | 15° C | 79% | 1004.1 hPa | 0 mm | 2.24 m/s, 198° | 0 W/m² | - |
| 1778014209 | 15° C | 79% | 1004 hPa | 0 mm | 0 m/s | 0 W/m² | - |
| 1778013903 | 15° C | 79% | 1003.8 hPa | 0 mm | 0 m/s | 0 W/m² | - |
| 1778013608 | 15.56° C | 77% | 1003.5 hPa | 0 mm | 0 m/s | 0 W/m² | - |
| 1778013303 | 15.56° C | 76% | 1003.3 hPa | 0 mm | 0 m/s | 0 W/m² | - |
| 1778013010 | 16.11° C | 75% | 1003.1 hPa | 0 mm | 0.45 m/s, 192° | 0 W/m² | - |
| 1778012703 | 16.11° C | 73% | 1002.9 hPa | 0 mm | 0 m/s | 0 W/m² | - |
| 1778012410 | 16.11° C | 72% | 1002.7 hPa | 0 mm | 0 m/s | 0 W/m² | - |
| 1778012106 | 16.11° C | 70% | 1002.4 hPa | 0 mm | 0.45 m/s, 206° | 0 W/m² | - |
| 1778011809 | 16.11° C | 70% | 1002.6 hPa | 0 mm | 0.89 m/s, 166° | 0 W/m² | - |
| 1778011503 | 16.11° C | 67% | 1002.4 hPa | 0 mm | 0.45 m/s, 13° | 0 W/m² | - |
| 1778011209 | 16.67° C | 66% | 1002 hPa | 0 mm | 0 m/s | 0 W/m² | - |
| 1778010905 | 17.22° C | 62% | 1001.8 hPa | 0 mm | 0 m/s | 0 W/m² | - |
| 1778010609 | 17.22° C | 61% | 1001.7 hPa | 0 mm | 0 m/s | 0 W/m² | - |
| 1778010303 | 17.22° C | 63% | 1001.8 hPa | 0 mm | 0 m/s | 0 W/m² | - |
| 1778009703 | 16.67° C | 67% | 1001.8 hPa | 0 mm | 0 m/s | 0 W/m² | - |
| 1778009404 | 16.67° C | 68% | 1001.9 hPa | 0 mm | 0 m/s | 0 W/m² | - |
| 1778009102 | 16.67° C | 68% | 1001.8 hPa | 0 mm | 0 m/s | 0 W/m² | - |
| 1778008803 | 16.67° C | 67% | 1001.7 hPa | 0 mm | 0 m/s | 0 W/m² | - |
* Rain latest hour (hover to see other rain measurements)
** Current wind speed in m/s (hover to see current wind gust speed)